DLH8HW EDDM-EDDG

Flight info

Callsign DLH8HW
Flight time 0h 53m
Altitude 32000
Route INPUD3E INPUD Y102 TESDU DCT AMETU T852 EKSAK/N0421F260 T852 KULIX/N0409F240 T842 ADEMI/N0402F230 M170 HMM HMM1A
Aircraft A319/M-SDE3FGHIRWY/LB1

Departure

Time 2026-05-08 07:08
Airport Munich Airport (EDDM)

Arrival

Time 2026-05-08 08:02
Airport Münster Osnabrück Airport (EDDG)
Time Latitude Longitude Altitude Speed Heading
2026-05-08 06:42 48.35709 11.79951 1480 ft 0 kts 263°
2026-05-08 06:52 48.35709 11.79952 1480 ft 0 kts 263°
2026-05-08 06:54 48.35710 11.79956 1485 ft 3 kts 263°
2026-05-08 06:54 48.35713 11.79996 1480 ft 4 kts 259°
2026-05-08 06:54 48.35720 11.80035 1475 ft 4 kts 248°
2026-05-08 06:55 48.35733 11.80067 1473 ft 4 kts 208°
2026-05-08 06:55 48.35746 11.80072 1476 ft 1 kts 173°
2026-05-08 06:55 48.35748 11.80072 1481 ft 1 kts 173°
2026-05-08 06:57 48.35747 11.80072 1480 ft 1 kts 174°
2026-05-08 06:57 48.35725 11.80075 1478 ft 6 kts 174°
2026-05-08 06:57 48.35682 11.80091 1484 ft 7 kts 162°
2026-05-08 06:58 48.35630 11.80102 1478 ft 8 kts 174°
2026-05-08 06:58 48.35563 11.80114 1480 ft 11 kts 173°
2026-05-08 06:58 48.35475 11.80129 1485 ft 12 kts 173°
2026-05-08 06:58 48.35391 11.80149 1483 ft 12 kts 162°
2026-05-08 06:59 48.35303 11.80169 1485 ft 13 kts 173°
2026-05-08 06:59 48.35208 11.80185 1481 ft 14 kts 173°
2026-05-08 06:59 48.35138 11.80164 1477 ft 10 kts 244°
2026-05-08 06:59 48.35128 11.80053 1485 ft 11 kts 263°
2026-05-08 07:00 48.35119 11.79932 1474 ft 12 kts 263°
2026-05-08 07:00 48.35109 11.79801 1485 ft 13 kts 264°
2026-05-08 07:00 48.35099 11.79662 1473 ft 14 kts 263°
2026-05-08 07:00 48.35074 11.79533 1477 ft 13 kts 220°
2026-05-08 07:01 48.34985 11.79536 1479 ft 14 kts 174°
2026-05-08 07:01 48.34887 11.79551 1483 ft 15 kts 173°
2026-05-08 07:01 48.34792 11.79527 1481 ft 15 kts 237°
2026-05-08 07:01 48.34777 11.79372 1485 ft 15 kts 263°
2026-05-08 07:02 48.34764 11.79208 1482 ft 16 kts 264°
2026-05-08 07:02 48.34751 11.79035 1482 ft 17 kts 263°
2026-05-08 07:02 48.34737 11.78854 1475 ft 18 kts 263°
2026-05-08 07:02 48.34723 11.78665 1473 ft 19 kts 263°
2026-05-08 07:03 48.34708 11.78468 1479 ft 19 kts 263°
2026-05-08 07:03 48.34692 11.78262 1481 ft 20 kts 263°
2026-05-08 07:03 48.34676 11.78050 1485 ft 21 kts 263°
2026-05-08 07:03 48.34659 11.77830 1485 ft 22 kts 263°
2026-05-08 07:04 48.34641 11.77602 1485 ft 22 kts 263°
2026-05-08 07:04 48.34623 11.77367 1473 ft 23 kts 263°
2026-05-08 07:04 48.34604 11.77126 1485 ft 24 kts 263°
2026-05-08 07:04 48.34586 11.76878 1485 ft 24 kts 264°
2026-05-08 07:05 48.34565 11.76622 1478 ft 25 kts 264°
2026-05-08 07:05 48.34545 11.76359 1481 ft 26 kts 263°
2026-05-08 07:05 48.34525 11.76090 1485 ft 26 kts 263°
2026-05-08 07:05 48.34504 11.75817 1479 ft 27 kts 263°
2026-05-08 07:06 48.34484 11.75557 1485 ft 23 kts 265°
2026-05-08 07:06 48.34466 11.75320 1485 ft 17 kts 260°
2026-05-08 07:06 48.34424 11.75214 1485 ft 12 kts 191°
2026-05-08 07:06 48.34337 11.75229 1483 ft 13 kts 174°
2026-05-08 07:07 48.34243 11.75246 1478 ft 14 kts 173°
2026-05-08 07:07 48.34145 11.75264 1476 ft 12 kts 173°
2026-05-08 07:07 48.34086 11.75281 1482 ft 5 kts 147°
2026-05-08 07:07 48.34085 11.75331 1481 ft 5 kts 78°
2026-05-08 07:08 48.34096 11.75455 1485 ft 37 kts 83°
2026-05-08 07:08 48.34158 11.76275 1486 ft 117 kts 83°
2026-05-08 07:08 48.34277 11.77749 1770 ft 149 kts 82°
2026-05-08 07:08 48.34416 11.79295 2553 ft 150 kts 82°
2026-05-08 07:09 48.34583 11.80929 3082 ft 170 kts 82°
2026-05-08 07:09 48.34782 11.82777 3586 ft 189 kts 82°
2026-05-08 07:09 48.35028 11.84871 3935 ft 219 kts 78°
2026-05-08 07:09 48.35668 11.87071 4432 ft 245 kts 49°
2026-05-08 07:10 48.37157 11.88462 5077 ft 265 kts 12°
2026-05-08 07:10 48.38991 11.88302 6006 ft 270 kts 337°
2026-05-08 07:10 48.40457 11.86599 7002 ft 271 kts 304°
2026-05-08 07:10 48.41404 11.84147 8074 ft 271 kts 298°
2026-05-08 07:11 48.42523 11.81839 9147 ft 275 kts 308°
2026-05-08 07:11 48.43832 11.79720 10205 ft 278 kts 312°
2026-05-08 07:11 48.45223 11.77665 11129 ft 282 kts 313°
2026-05-08 07:11 48.46630 11.75628 12022 ft 287 kts 314°
2026-05-08 07:12 48.48069 11.73517 12920 ft 292 kts 313°
2026-05-08 07:12 48.49520 11.71344 13817 ft 296 kts 313°
2026-05-08 07:12 48.50982 11.69116 14605 ft 301 kts 313°
2026-05-08 07:12 48.52457 11.66845 15413 ft 305 kts 312°
2026-05-08 07:13 48.53946 11.64541 16216 ft 309 kts 312°
2026-05-08 07:13 48.55451 11.62206 17013 ft 312 kts 312°
2026-05-08 07:13 48.57127 11.60072 17789 ft 319 kts 324°
2026-05-08 07:13 48.59144 11.58472 18170 ft 341 kts 336°
2026-05-08 07:14 48.61433 11.57149 18319 ft 363 kts 337°
2026-05-08 07:14 48.63849 11.55765 18650 ft 377 kts 337°
2026-05-08 07:14 48.66323 11.54350 19230 ft 383 kts 337°
2026-05-08 07:14 48.68827 11.52918 19876 ft 386 kts 337°
2026-05-08 07:15 48.71348 11.51474 20538 ft 389 kts 336°
2026-05-08 07:15 48.73891 11.50010 21194 ft 393 kts 336°
2026-05-08 07:15 48.76456 11.48521 21833 ft 396 kts 336°
2026-05-08 07:15 48.79038 11.47016 22455 ft 400 kts 336°
2026-05-08 07:16 48.81645 11.45496 23065 ft 403 kts 336°
2026-05-08 07:16 48.84270 11.43965 23664 ft 406 kts 336°
2026-05-08 07:16 48.86917 11.42420 24172 ft 409 kts 336°
2026-05-08 07:16 48.89581 11.40867 24669 ft 411 kts 336°
2026-05-08 07:17 48.92261 11.39303 25153 ft 414 kts 336°
2026-05-08 07:17 48.94959 11.37728 25612 ft 417 kts 336°
2026-05-08 07:17 48.97676 11.36140 26093 ft 420 kts 336°
2026-05-08 07:17 49.00407 11.34539 26574 ft 422 kts 335°
2026-05-08 07:18 49.03155 11.32921 27029 ft 425 kts 335°
2026-05-08 07:18 49.05918 11.31292 27492 ft 427 kts 335°
2026-05-08 07:18 49.08699 11.29655 27957 ft 430 kts 335°
2026-05-08 07:18 49.11502 11.28006 28420 ft 433 kts 335°
2026-05-08 07:19 49.14318 11.26350 28856 ft 435 kts 335°
2026-05-08 07:19 49.17153 11.24680 29290 ft 438 kts 335°
2026-05-08 07:19 49.20006 11.22997 29702 ft 441 kts 335°
2026-05-08 07:19 49.22872 11.21306 30108 ft 443 kts 335°
2026-05-08 07:20 49.25771 11.19635 30463 ft 446 kts 336°
2026-05-08 07:20 49.28689 11.17987 30796 ft 448 kts 336°
2026-05-08 07:20 49.31627 11.16346 31129 ft 451 kts 336°
2026-05-08 07:20 49.34579 11.14700 31522 ft 451 kts 336°
2026-05-08 07:21 49.37525 11.13051 31967 ft 450 kts 336°
2026-05-08 07:21 49.40463 11.11395 32113 ft 448 kts 336°
2026-05-08 07:21 49.46203 11.08134 32138 ft 435 kts 336°
2026-05-08 07:22 49.51846 11.04853 32138 ft 432 kts 332°
2026-05-08 07:22 49.57020 11.00300 32138 ft 428 kts 325°
2026-05-08 07:23 49.62101 10.95517 32135 ft 428 kts 325°
2026-05-08 07:23 49.67184 10.90744 32128 ft 427 kts 325°
2026-05-08 07:24 49.72254 10.85949 32139 ft 427 kts 325°
2026-05-08 07:24 49.77322 10.81144 32119 ft 427 kts 325°
2026-05-08 07:25 49.82390 10.76335 32114 ft 427 kts 325°
2026-05-08 07:26 49.89995 10.69084 32115 ft 428 kts 325°
2026-05-08 07:26 49.95064 10.64231 32125 ft 428 kts 325°
2026-05-08 07:27 50.00140 10.59373 32131 ft 429 kts 325°
2026-05-08 07:27 50.05216 10.54496 32131 ft 429 kts 325°
2026-05-08 07:28 50.10284 10.49604 32123 ft 429 kts 325°
2026-05-08 07:28 50.15358 10.44704 32124 ft 429 kts 325°
2026-05-08 07:29 50.20219 10.39389 32136 ft 425 kts 314°
2026-05-08 07:29 50.23939 10.32315 32127 ft 421 kts 303°
2026-05-08 07:30 50.27289 10.24826 32121 ft 421 kts 303°
2026-05-08 07:30 50.30640 10.17323 32116 ft 421 kts 303°
2026-05-08 07:31 50.33984 10.09814 32113 ft 421 kts 303°
2026-05-08 07:31 50.37331 10.02280 32112 ft 421 kts 303°
2026-05-08 07:32 50.40670 9.94732 32117 ft 422 kts 302°
2026-05-08 07:32 50.44007 9.87166 32117 ft 422 kts 302°
2026-05-08 07:33 50.46781 9.80878 32134 ft 422 kts 303°
2026-05-08 07:33 50.50117 9.73296 32139 ft 422 kts 302°
2026-05-08 07:34 50.53435 9.65704 32113 ft 421 kts 302°
2026-05-08 07:34 50.56745 9.58106 32116 ft 421 kts 302°
2026-05-08 07:35 50.60080 9.50453 32109 ft 421 kts 302°
2026-05-08 07:35 50.63368 9.42901 32113 ft 421 kts 302°
2026-05-08 07:36 50.66669 9.35269 32122 ft 421 kts 302°
2026-05-08 07:36 50.69959 9.27623 32118 ft 421 kts 302°
2026-05-08 07:37 50.73253 9.19966 32122 ft 422 kts 302°
2026-05-08 07:37 50.76544 9.12296 32124 ft 422 kts 302°
2026-05-08 07:38 50.79856 9.04563 32120 ft 422 kts 302°
2026-05-08 07:38 50.83138 8.96865 32119 ft 422 kts 302°
2026-05-08 07:39 50.86644 8.89397 32129 ft 423 kts 306°
2026-05-08 07:39 50.90372 8.82172 32130 ft 424 kts 307°
2026-05-08 07:40 50.94068 8.74987 32130 ft 423 kts 306°
2026-05-08 07:40 50.97727 8.67673 32126 ft 423 kts 306°
2026-05-08 07:41 51.01487 8.60484 32129 ft 425 kts 314°
2026-05-08 07:41 51.06268 8.54885 32135 ft 429 kts 324°
2026-05-08 07:42 51.11274 8.49706 32124 ft 430 kts 324°
2026-05-08 07:42 51.16309 8.44450 32128 ft 430 kts 324°
2026-05-08 07:43 51.21281 8.39241 32135 ft 435 kts 324°
2026-05-08 07:43 51.26443 8.33835 32139 ft 444 kts 324°
2026-05-08 07:44 51.31596 8.28437 31040 ft 440 kts 323°
2026-05-08 07:44 51.33980 8.25403 29063 ft 448 kts 314°
2026-05-08 07:44 51.36080 8.21628 27346 ft 448 kts 304°
2026-05-08 07:44 51.37694 8.17561 26752 ft 429 kts 298°
2026-05-08 07:45 51.39197 8.13417 26113 ft 422 kts 299°
2026-05-08 07:45 51.40679 8.09406 25455 ft 416 kts 299°
2026-05-08 07:45 51.42152 8.05442 24792 ft 412 kts 299°
2026-05-08 07:45 51.43609 8.01523 24134 ft 407 kts 299°
2026-05-08 07:46 51.45053 7.97637 23458 ft 404 kts 299°
2026-05-08 07:46 51.46613 7.93926 22822 ft 400 kts 308°
2026-05-08 07:46 51.48548 7.90771 22267 ft 396 kts 318°
2026-05-08 07:46 51.50772 7.88293 21714 ft 394 kts 329°
2026-05-08 07:47 51.53262 7.86506 21194 ft 392 kts 339°
2026-05-08 07:47 51.55865 7.85241 20679 ft 390 kts 341°
2026-05-08 07:47 51.58452 7.84004 20173 ft 386 kts 341°
2026-05-08 07:47 51.61018 7.82777 19673 ft 383 kts 341°
2026-05-08 07:48 51.63559 7.81556 19179 ft 380 kts 341°
2026-05-08 07:48 51.66078 7.80340 18678 ft 376 kts 341°
2026-05-08 07:48 51.68579 7.79129 18134 ft 374 kts 341°
2026-05-08 07:48 51.71059 7.77925 17600 ft 370 kts 341°
2026-05-08 07:49 51.73509 7.76739 17089 ft 366 kts 341°
2026-05-08 07:49 51.75938 7.75566 16571 ft 362 kts 342°
2026-05-08 07:49 51.78374 7.74388 16051 ft 360 kts 342°
2026-05-08 07:49 51.80723 7.73205 15538 ft 357 kts 337°
2026-05-08 07:50 51.82914 7.71391 15013 ft 353 kts 325°
2026-05-08 07:50 51.84787 7.68868 14495 ft 349 kts 312°
2026-05-08 07:50 51.86273 7.65782 13927 ft 347 kts 300°
2026-05-08 07:50 51.87303 7.62271 13316 ft 345 kts 288°
2026-05-08 07:51 51.88004 7.58579 12759 ft 342 kts 286°
2026-05-08 07:51 51.88694 7.54907 12183 ft 340 kts 286°
2026-05-08 07:51 51.89385 7.51251 11598 ft 339 kts 285°
2026-05-08 07:51 51.90073 7.47610 11013 ft 337 kts 285°
2026-05-08 07:52 51.90748 7.44025 10679 ft 323 kts 286°
2026-05-08 07:52 51.91376 7.40682 10516 ft 300 kts 286°
2026-05-08 07:52 51.91969 7.37498 10132 ft 291 kts 285°
2026-05-08 07:52 51.92548 7.34371 9995 ft 289 kts 285°
2026-05-08 07:53 51.93122 7.31262 9864 ft 287 kts 285°
2026-05-08 07:53 51.93696 7.28167 9710 ft 287 kts 285°
2026-05-08 07:53 51.94278 7.25038 9125 ft 291 kts 285°
2026-05-08 07:53 51.94968 7.22009 8628 ft 285 kts 300°
2026-05-08 07:54 51.96267 7.19636 7954 ft 282 kts 324°
2026-05-08 07:54 51.98027 7.18302 7298 ft 279 kts 347°
2026-05-08 07:54 51.99942 7.18175 6662 ft 275 kts 11°
2026-05-08 07:54 52.01714 7.19214 5982 ft 271 kts 32°
2026-05-08 07:55 52.03098 7.21240 5341 ft 266 kts 55°
2026-05-08 07:55 52.03907 7.23793 5174 ft 244 kts 71°
2026-05-08 07:55 52.04440 7.26285 5045 ft 225 kts 71°
2026-05-08 07:55 52.04942 7.28591 4930 ft 209 kts 71°
2026-05-08 07:56 52.05401 7.30714 4882 ft 192 kts 71°
2026-05-08 07:56 52.05838 7.32742 4610 ft 188 kts 72°
2026-05-08 07:56 52.06265 7.34725 4351 ft 184 kts 72°
2026-05-08 07:56 52.06682 7.36669 4098 ft 180 kts 72°
2026-05-08 07:57 52.07092 7.38574 3873 ft 177 kts 73°
2026-05-08 07:57 52.07493 7.40446 3622 ft 174 kts 73°
2026-05-08 07:57 52.07889 7.42293 3387 ft 172 kts 73°
2026-05-08 07:57 52.08278 7.44108 3152 ft 169 kts 73°
2026-05-08 07:58 52.08661 7.45897 2923 ft 167 kts 73°
2026-05-08 07:58 52.09039 7.47664 2698 ft 164 kts 73°
2026-05-08 07:58 52.09408 7.49393 2473 ft 159 kts 73°
2026-05-08 07:58 52.09766 7.51067 2269 ft 151 kts 73°
2026-05-08 07:59 52.10098 7.52625 2068 ft 145 kts 74°
2026-05-08 07:59 52.10422 7.54144 1876 ft 140 kts 75°
2026-05-08 07:59 52.10737 7.55625 1684 ft 136 kts 74°
2026-05-08 07:59 52.11036 7.57027 1495 ft 124 kts 73°
2026-05-08 08:00 52.11313 7.58332 1324 ft 120 kts 75°
2026-05-08 08:00 52.11586 7.59615 1163 ft 120 kts 73°
2026-05-08 08:00 52.11861 7.60884 1012 ft 118 kts 72°
2026-05-08 08:00 52.12127 7.62143 801 ft 118 kts 74°
2026-05-08 08:01 52.12383 7.63412 678 ft 118 kts 73°
2026-05-08 08:01 52.12659 7.64692 488 ft 120 kts 71°
2026-05-08 08:01 52.12934 7.65964 325 ft 119 kts 72°
2026-05-08 08:01 52.13202 7.67230 193 ft 118 kts 73°
2026-05-08 08:02 52.13437 7.68360 169 ft 87 kts 71°
2026-05-08 08:02 52.13577 7.69027 169 ft 40 kts 71°
2026-05-08 08:02 52.13666 7.69443 169 ft 38 kts 69°
2026-05-08 08:02 52.13747 7.69823 168 ft 32 kts 70°
2026-05-08 08:03 52.13738 7.70013 168 ft 17 kts 156°
2026-05-08 08:03 52.13626 7.70009 168 ft 18 kts 222°
2026-05-08 08:03 52.13573 7.69823 168 ft 19 kts 252°
2026-05-08 08:03 52.13528 7.69607 168 ft 22 kts 251°
2026-05-08 08:04 52.13477 7.69369 168 ft 22 kts 250°
2026-05-08 08:04 52.13422 7.69231 168 ft 12 kts 185°
2026-05-08 08:04 52.13332 7.69277 168 ft 15 kts 161°
2026-05-08 08:04 52.13245 7.69321 168 ft 10 kts 175°
2026-05-08 08:05 52.13192 7.69317 168 ft 7 kts 201°
2026-05-08 08:05 52.13162 7.69303 168 ft 2 kts 194°
2026-05-08 08:05 52.13158 7.69301 168 ft 0 kts 194°